M I D A S
Marine Information and Data Acquisition System
Tripno 1342 of the Zeeleeuw from 2007-08-14 07:07:09 to 2007-08-14 11:50:33
Back to CruiseResearch ActivitiesStationsMapUnderway DataData graphs

EquipmentUnitsComment
TimeDGPSUTC
LatitudeDGPSDM.mWGS84
LongitudeDGPSDM.mWGS84
TemperatureSBE03/SBE38deg celciusITS90
ConductivitySBE21S/mITS90
SalinitySBE21 Practical Salinity Units
ChlorophylAChelsea fluorimeterg/lCalibrated in Aceton
Missing or incorrect values are displayed as -999
Sea surface data collected by the RV Zeeleeuw from 2007-08-14 06:29:17 to 2007-08-14 11:46:07
Time Latitude Longitude Temperature Conductivity Salinity ChlorophylA
2007-08-14 06:30:22 51°13.603 2°56.098 -999 -999 -999 -999
2007-08-14 06:31:22 51°13.603 2°56.097 -999 -999 -999 -999
2007-08-14 06:32:22 51°13.602 2°56.098 -999 -999 -999 -999
2007-08-14 06:33:22 51°13.602 2°56.098 -999 -999 -999 -999
2007-08-14 06:34:22 51°13.602 2°56.098 -999 -999 -999 -999
2007-08-14 06:35:22 51°13.602 2°56.098 -999 -999 -999 -999
2007-08-14 06:36:22 51°13.602 2°56.098 -999 -999 -999 -999
2007-08-14 06:37:22 51°13.601 2°56.099 -999 -999 -999 -999
2007-08-14 06:38:22 51°13.602 2°56.099 -999 -999 -999 -999
2007-08-14 06:39:22 51°13.602 2°56.099 -999 -999 -999 -999
2007-08-14 06:40:22 51°13.602 2°56.099 -999 -999 -999 -999
2007-08-14 06:41:22 51°13.601 2°56.099 -999 -999 -999 -999
2007-08-14 06:42:22 51°13.601 2°56.099 -999 -999 -999 -999
2007-08-14 06:43:22 51°13.601 2°56.099 -999 -999 -999 -999
2007-08-14 06:44:22 51°13.601 2°56.099 -999 -999 -999 -999
2007-08-14 06:45:22 51°13.602 2°56.1 -999 -999 -999 -999
2007-08-14 06:46:22 51°13.601 2°56.1 -999 -999 -999 -999
2007-08-14 06:47:22 51°13.601 2°56.101 -999 -999 -999 -999
2007-08-14 06:48:22 51°13.601 2°56.101 -999 -999 -999 -999
2007-08-14 06:49:22 51°13.602 2°56.1 -999 -999 -999 -999
2007-08-14 06:50:21 51°13.602 2°56.1 -999 -999 -999 -999
2007-08-14 06:51:21 51°13.603 2°56.099 -999 -999 -999 -999
2007-08-14 06:52:21 51°13.604 2°56.098 -999 -999 -999 -999
2007-08-14 06:53:21 51°13.603 2°56.098 -999 -999 -999 -999
2007-08-14 06:54:21 51°13.602 2°56.098 -999 -999 -999 -999
2007-08-14 06:55:22 51°13.602 2°56.098 -999 -999 -999 -999
2007-08-14 06:56:21 51°13.603 2°56.097 -999 -999 -999 -999
2007-08-14 06:57:21 51°13.603 2°56.097 -999 -999 -999 -999
2007-08-14 06:58:21 51°13.605 2°56.094 -999 -999 -999 -999
2007-08-14 06:59:21 51°13.603 2°56.096 -999 -999 -999 -999
2007-08-14 07:00:21 51°13.603 2°56.098 -999 -999 -999 -999
2007-08-14 07:01:21 51°13.602 2°56.099 -999 -999 -999 -999
2007-08-14 07:02:22 51°13.603 2°56.099 -999 -999 -999 -999
2007-08-14 07:03:21 51°13.602 2°56.099 -999 -999 -999 -999
2007-08-14 07:04:21 51°13.602 2°56.1 -999 -999 -999 -999
2007-08-14 07:05:21 51°13.602 2°56.1 -999 -999 -999 -999
2007-08-14 07:06:21 51°13.601 2°56.1 -999 -999 -999 -999
2007-08-14 07:07:21 51°13.604 2°56.085 -999 -999 -999 -999
2007-08-14 07:08:22 51°13.624 2°56.003 -999 -999 -999 -999
2007-08-14 07:09:21 51°13.656 2°55.906 -999 -999 -999 -999
2007-08-14 07:10:21 51°13.677 2°55.84 -999 -999 -999 -999
2007-08-14 07:11:22 51°13.687 2°55.788 -999 -999 -999 -999
2007-08-14 07:12:21 51°13.691 2°55.748 -999 -999 -999 -999
2007-08-14 07:13:21 51°13.698 2°55.747 -999 -999 -999 -999
2007-08-14 07:14:21 51°13.694 2°55.73 -999 -999 -999 -999
2007-08-14 07:15:21 51°13.7 2°55.726 -999 -999 -999 -999
2007-08-14 07:16:21 51°13.7 2°55.72 -999 -999 -999 -999
2007-08-14 07:17:21 51°13.699 2°55.717 -999 -999 -999 -999
2007-08-14 07:18:21 51°13.701 2°55.714 -999 -999 -999 -999
2007-08-14 07:19:21 51°13.707 2°55.71 -999 -999 -999 -999
2007-08-14 07:20:22 51°13.717 2°55.705 -999 -999 -999 -999
2007-08-14 07:21:21 51°13.718 2°55.703 -999 -999 -999 -999
2007-08-14 07:22:22 51°13.722 2°55.7 -999 -999 -999 -999
2007-08-14 07:23:21 51°13.722 2°55.697 -999 -999 -999 -999
2007-08-14 07:24:21 51°13.717 2°55.699 -999 -999 -999 -999
2007-08-14 07:25:21 51°13.718 2°55.698 -999 -999 -999 -999
2007-08-14 07:26:21 51°13.726 2°55.692 -999 -999 -999 -999
2007-08-14 07:27:21 51°13.733 2°55.69 -999 -999 -999 -999
2007-08-14 07:28:21 51°13.738 2°55.686 -999 -999 -999 -999
2007-08-14 07:29:22 51°13.775 2°55.665 -999 -999 -999 -999
2007-08-14 07:30:21 51°13.892 2°55.589 -999 -999 -999 -999
2007-08-14 07:31:22 51°14.04 2°55.483 -999 -999 -999 -999
2007-08-14 07:32:21 51°14.185 2°55.369 -999 -999 -999 -999
2007-08-14 07:33:21 51°14.311 2°55.185 -999 -999 -999 -999
2007-08-14 07:34:21 51°14.403 2°54.93 -999 -999 -999 -999
2007-08-14 07:35:21 51°14.427 2°54.593 -999 -999 -999 -999
2007-08-14 07:36:22 51°14.354 2°54.26 -999 -999 -999 -999
2007-08-14 07:37:21 51°14.246 2°53.957 -999 -999 -999 -999
2007-08-14 07:38:22 51°14.155 2°53.623 -999 -999 -999 -999
2007-08-14 07:39:21 51°14.052 2°53.308 -999 -999 -999 -999
2007-08-14 07:40:21 51°13.944 2°52.988 -999 -999 -999 -999
2007-08-14 07:41:21 51°13.849 2°52.654 -999 -999 -999 -999
2007-08-14 07:42:21 51°13.751 2°52.319 -999 -999 -999 -999
2007-08-14 07:43:22 51°13.64 2°51.987 -999 -999 -999 -999
2007-08-14 07:44:21 51°13.554 2°51.673 -999 -999 -999 -999
2007-08-14 07:45:22 51°13.494 2°51.394 -999 -999 -999 -999
2007-08-14 07:46:21 51°13.464 2°51.199 -999 -999 -999 -999
2007-08-14 07:47:22 51°13.457 2°51.125 -999 -999 -999 -999
2007-08-14 07:48:21 51°13.454 2°51.112 -999 -999 -999 -999
2007-08-14 07:49:22 51°13.45 2°51.085 -999 -999 -999 -999
2007-08-14 07:50:21 51°13.442 2°51.076 -999 -999 -999 -999
2007-08-14 07:51:21 51°13.435 2°51.057 -999 -999 -999 -999
2007-08-14 07:52:21 51°13.429 2°51.033 -999 -999 -999 -999
2007-08-14 07:53:21 51°13.425 2°51.004 -999 -999 -999 -999
2007-08-14 07:54:21 51°13.422 2°50.974 -999 -999 -999 -999
2007-08-14 07:55:21 51°13.419 2°50.945 -999 -999 -999 -999
2007-08-14 07:56:22 51°13.419 2°50.916 -999 -999 -999 -999
2007-08-14 07:57:21 51°13.418 2°50.888 -999 -999 -999 -999
2007-08-14 07:58:21 51°13.417 2°50.86 -999 -999 -999 -999
2007-08-14 07:59:21 51°13.416 2°50.832 -999 -999 -999 -999
2007-08-14 08:00:21 51°13.416 2°50.804 -999 -999 -999 -999
2007-08-14 08:01:21 51°13.414 2°50.729 -999 -999 -999 -999
2007-08-14 08:02:21 51°13.371 2°50.645 -999 -999 -999 -999
2007-08-14 08:03:22 51°13.314 2°50.666 -999 -999 -999 -999
2007-08-14 08:04:21 51°13.345 2°50.762 -999 -999 -999 -999
2007-08-14 08:05:22 51°13.432 2°50.993 -999 -999 -999 -999
2007-08-14 08:06:21 51°13.526 2°51.241 -999 -999 -999 -999
2007-08-14 08:07:21 51°13.621 2°51.497 -999 -999 -999 -999
2007-08-14 08:08:21 51°13.709 2°51.763 -999 -999 -999 -999
2007-08-14 08:09:22 51°13.798 2°52.032 -999 -999 -999 -999
2007-08-14 08:10:22 51°13.885 2°52.298 -999 -999 -999 -999
2007-08-14 08:11:21 51°13.971 2°52.559 -999 -999 -999 -999
2007-08-14 08:12:22 51°14.055 2°52.834 -999 -999 -999 -999
2007-08-14 08:13:21 51°14.145 2°53.094 -999 -999 -999 -999
2007-08-14 08:14:21 51°14.236 2°53.359 -999 -999 -999 -999
2007-08-14 08:15:21 51°14.335 2°53.618 -999 -999 -999 -999
2007-08-14 08:16:21 51°14.497 2°53.769 -999 -999 -999 -999
2007-08-14 08:17:22 51°14.673 2°53.65 -999 -999 -999 -999
2007-08-14 08:18:21 51°14.716 2°53.328 -999 -999 -999 -999
2007-08-14 08:19:22 51°14.704 2°52.969 -999 -999 -999 -999
2007-08-14 08:20:21 51°14.699 2°52.615 -999 -999 -999 -999
2007-08-14 08:21:22 51°14.699 2°52.244 -999 -999 -999 -999
2007-08-14 08:22:21 51°14.701 2°51.883 -999 -999 -999 -999
2007-08-14 08:23:21 51°14.716 2°51.519 -999 -999 -999 -999
2007-08-14 08:24:21 51°14.755 2°51.162 -999 -999 -999 -999
2007-08-14 08:25:22 51°14.739 2°50.944 -999 -999 -999 -999
2007-08-14 08:26:21 51°14.708 2°50.858 -999 -999 -999 -999
2007-08-14 08:27:21 51°14.68 2°50.796 -999 -999 -999 -999
2007-08-14 08:28:22 51°14.619 2°50.68 -999 -999 -999 -999
2007-08-14 08:29:21 51°14.585 2°50.543 -999 -999 -999 -999
2007-08-14 08:30:21 51°14.562 2°50.442 -999 -999 -999 -999
2007-08-14 08:31:21 51°14.547 2°50.363 -999 -999 -999 -999
2007-08-14 08:32:22 51°14.533 2°50.292 -999 -999 -999 -999
2007-08-14 08:33:22 51°14.517 2°50.226 -999 -999 -999 -999
2007-08-14 08:34:21 51°14.499 2°50.16 -999 -999 -999 -999
2007-08-14 08:35:22 51°14.481 2°50.088 -999 -999 -999 -999
2007-08-14 08:36:21 51°14.464 2°50.016 -999 -999 -999 -999
2007-08-14 08:37:22 51°14.444 2°49.946 -999 -999 -999 -999
2007-08-14 08:38:21 51°14.423 2°49.878 -999 -999 -999 -999
2007-08-14 08:39:22 51°14.402 2°49.81 -999 -999 -999 -999
2007-08-14 08:40:21 51°14.38 2°49.746 -999 -999 -999 -999
2007-08-14 08:41:22 51°14.359 2°49.682 -999 -999 -999 -999
2007-08-14 08:42:22 51°14.339 2°49.619 -999 -999 -999 -999
2007-08-14 08:43:21 51°14.319 2°49.556 -999 -999 -999 -999
2007-08-14 08:44:22 51°14.298 2°49.488 -999 -999 -999 -999
2007-08-14 08:45:21 51°14.278 2°49.424 -999 -999 -999 -999
2007-08-14 08:46:22 51°14.255 2°49.358 -999 -999 -999 -999
2007-08-14 08:47:21 51°14.232 2°49.297 -999 -999 -999 -999
2007-08-14 08:48:22 51°14.208 2°49.234 -999 -999 -999 -999
2007-08-14 08:49:22 51°14.184 2°49.175 -999 -999 -999 -999
2007-08-14 08:50:21 51°14.161 2°49.116 -999 -999 -999 -999
2007-08-14 08:51:22 51°14.137 2°49.055 -999 -999 -999 -999
2007-08-14 08:52:22 51°14.114 2°48.99 -999 -999 -999 -999
2007-08-14 08:53:22 51°14.091 2°48.92 -999 -999 -999 -999
2007-08-14 08:54:21 51°14.072 2°48.835 -999 -999 -999 -999
2007-08-14 08:55:22 51°14.067 2°48.739 -999 -999 -999 -999
2007-08-14 08:56:21 51°14.082 2°48.654 -999 -999 -999 -999
2007-08-14 08:57:22 51°14.11 2°48.591 -999 -999 -999 -999
2007-08-14 08:58:21 51°14.129 2°48.544 -999 -999 -999 -999
2007-08-14 08:59:21 51°14.142 2°48.496 -999 -999 -999 -999
2007-08-14 09:00:22 51°14.148 2°48.445 -999 -999 -999 -999
2007-08-14 09:01:22 51°14.147 2°48.398 -999 -999 -999 -999
2007-08-14 09:02:22 51°14.145 2°48.356 -999 -999 -999 -999
2007-08-14 09:03:21 51°14.142 2°48.319 -999 -999 -999 -999
2007-08-14 09:04:22 51°14.139 2°48.283 -999 -999 -999 -999
2007-08-14 09:05:22 51°14.138 2°48.25 -999 -999 -999 -999
2007-08-14 09:06:21 51°14.137 2°48.219 -999 -999 -999 -999
2007-08-14 09:07:22 51°14.135 2°48.19 -999 -999 -999 -999
2007-08-14 09:08:22 51°14.133 2°48.162 -999 -999 -999 -999
2007-08-14 09:09:22 51°14.131 2°48.135 -999 -999 -999 -999
2007-08-14 09:10:21 51°14.13 2°48.109 -999 -999 -999 -999
2007-08-14 09:11:22 51°14.168 2°47.997 -999 -999 -999 -999
2007-08-14 09:12:21 51°14.23 2°47.939 -999 -999 -999 -999
2007-08-14 09:13:22 51°14.28 2°47.941 -999 -999 -999 -999
2007-08-14 09:14:21 51°14.316 2°47.952 -999 -999 -999 -999
2007-08-14 09:15:22 51°14.356 2°47.966 -999 -999 -999 -999
2007-08-14 09:16:22 51°14.387 2°48.006 -999 -999 -999 -999
2007-08-14 09:17:22 51°14.397 2°48.068 -999 -999 -999 -999
2007-08-14 09:18:22 51°14.392 2°48.144 -999 -999 -999 -999
2007-08-14 09:19:21 51°14.388 2°48.215 -999 -999 -999 -999
2007-08-14 09:20:22 51°14.383 2°48.284 -999 -999 -999 -999
2007-08-14 09:21:22 51°14.377 2°48.351 -999 -999 -999 -999
2007-08-14 09:22:22 51°14.373 2°48.418 -999 -999 -999 -999
2007-08-14 09:23:22 51°14.366 2°48.486 -999 -999 -999 -999
2007-08-14 09:24:22 51°14.362 2°48.553 -999 -999 -999 -999
2007-08-14 09:25:22 51°14.358 2°48.621 -999 -999 -999 -999
2007-08-14 09:26:21 51°14.355 2°48.688 -999 -999 -999 -999
2007-08-14 09:27:22 51°14.352 2°48.757 -999 -999 -999 -999
2007-08-14 09:28:22 51°14.353 2°48.825 -999 -999 -999 -999
2007-08-14 09:29:22 51°14.358 2°48.892 -999 -999 -999 -999
2007-08-14 09:30:21 51°14.362 2°48.959 -999 -999 -999 -999
2007-08-14 09:31:22 51°14.366 2°49.029 -999 -999 -999 -999
2007-08-14 09:32:22 51°14.372 2°49.099 -999 -999 -999 -999
2007-08-14 09:33:22 51°14.381 2°49.167 -999 -999 -999 -999
2007-08-14 09:34:22 51°14.39 2°49.236 -999 -999 -999 -999
2007-08-14 09:35:21 51°14.398 2°49.304 -999 -999 -999 -999
2007-08-14 09:36:22 51°14.411 2°49.372 -999 -999 -999 -999
2007-08-14 09:37:22 51°14.422 2°49.44 -999 -999 -999 -999
2007-08-14 09:38:22 51°14.434 2°49.508 -999 -999 -999 -999
2007-08-14 09:39:22 51°14.448 2°49.576 -999 -999 -999 -999
2007-08-14 09:40:22 51°14.462 2°49.643 -999 -999 -999 -999
2007-08-14 09:41:22 51°14.478 2°49.709 -999 -999 -999 -999
2007-08-14 09:42:21 51°14.494 2°49.773 -999 -999 -999 -999
2007-08-14 09:43:22 51°14.501 2°49.853 -999 -999 -999 -999
2007-08-14 09:44:22 51°14.492 2°49.94 -999 -999 -999 -999
2007-08-14 09:45:22 51°14.466 2°49.998 -999 -999 -999 -999
2007-08-14 09:46:21 51°14.447 2°50.012 -999 -999 -999 -999
2007-08-14 09:47:22 51°14.432 2°50.016 -999 -999 -999 -999
2007-08-14 09:48:22 51°14.409 2°50.039 -999 -999 -999 -999
2007-08-14 09:49:22 51°14.387 2°50.058 -999 -999 -999 -999
2007-08-14 09:50:22 51°14.386 2°50.124 -999 -999 -999 -999
2007-08-14 09:51:22 51°14.456 2°50.35 -999 -999 -999 -999
2007-08-14 09:52:22 51°14.564 2°50.595 -999 -999 -999 -999
2007-08-14 09:53:22 51°14.648 2°50.807 -999 -999 -999 -999
2007-08-14 09:54:22 51°14.655 2°50.933 -999 -999 -999 -999
2007-08-14 09:55:22 51°14.661 2°51.029 -999 -999 -999 -999
2007-08-14 09:56:22 51°14.634 2°51.128 -999 -999 -999 -999
2007-08-14 09:57:22 51°14.571 2°51.154 -999 -999 -999 -999
2007-08-14 09:58:22 51°14.513 2°51.098 -999 -999 -999 -999
2007-08-14 09:59:22 51°14.479 2°51.03 -999 -999 -999 -999
2007-08-14 10:00:22 51°14.457 2°50.968 -999 -999 -999 -999
2007-08-14 10:01:22 51°14.443 2°50.913 -999 -999 -999 -999
2007-08-14 10:02:21 51°14.428 2°50.853 -999 -999 -999 -999
2007-08-14 10:03:22 51°14.407 2°50.786 -999 -999 -999 -999
2007-08-14 10:04:22 51°14.383 2°50.717 -999 -999 -999 -999
2007-08-14 10:05:22 51°14.357 2°50.649 -999 -999 -999 -999
2007-08-14 10:06:22 51°14.33 2°50.582 -999 -999 -999 -999
2007-08-14 10:07:22 51°14.301 2°50.517 -999 -999 -999 -999
2007-08-14 10:08:22 51°14.275 2°50.45 -999 -999 -999 -999
2007-08-14 10:09:22 51°14.251 2°50.383 -999 -999 -999 -999
2007-08-14 10:10:22 51°14.228 2°50.316 -999 -999 -999 -999
2007-08-14 10:11:21 51°14.207 2°50.25 -999 -999 -999 -999
2007-08-14 10:12:21 51°14.184 2°50.183 -999 -999 -999 -999
2007-08-14 10:13:21 51°14.162 2°50.117 -999 -999 -999 -999
2007-08-14 10:14:21 51°14.139 2°50.053 -999 -999 -999 -999
2007-08-14 10:15:21 51°14.116 2°49.992 -999 -999 -999 -999
2007-08-14 10:16:21 51°14.092 2°49.931 -999 -999 -999 -999
2007-08-14 10:17:21 51°14.067 2°49.871 -999 -999 -999 -999
2007-08-14 10:18:22 51°14.042 2°49.809 -999 -999 -999 -999
2007-08-14 10:19:21 51°14.018 2°49.749 -999 -999 -999 -999
2007-08-14 10:20:21 51°13.995 2°49.687 -999 -999 -999 -999
2007-08-14 10:21:21 51°13.974 2°49.626 -999 -999 -999 -999
2007-08-14 10:22:21 51°13.952 2°49.563 -999 -999 -999 -999
2007-08-14 10:23:21 51°13.929 2°49.499 -999 -999 -999 -999
2007-08-14 10:24:21 51°13.906 2°49.436 -999 -999 -999 -999
2007-08-14 10:25:21 51°13.883 2°49.372 -999 -999 -999 -999
2007-08-14 10:26:21 51°13.862 2°49.292 -999 -999 -999 -999
2007-08-14 10:27:21 51°13.864 2°49.202 -999 -999 -999 -999
2007-08-14 10:28:21 51°13.892 2°49.127 -999 -999 -999 -999
2007-08-14 10:29:21 51°13.925 2°49.093 -999 -999 -999 -999
2007-08-14 10:30:21 51°13.955 2°49.082 -999 -999 -999 -999
2007-08-14 10:31:21 51°13.982 2°49.074 -999 -999 -999 -999
2007-08-14 10:32:21 51°14.006 2°49.064 -999 -999 -999 -999
2007-08-14 10:33:21 51°14.034 2°49.049 -999 -999 -999 -999
2007-08-14 10:34:21 51°14.105 2°49.027 -999 -999 -999 -999
2007-08-14 10:35:21 51°14.176 2°49.072 -999 -999 -999 -999
2007-08-14 10:36:22 51°14.222 2°49.17 -999 -999 -999 -999
2007-08-14 10:37:21 51°14.235 2°49.265 -999 -999 -999 -999
2007-08-14 10:38:21 51°14.244 2°49.341 -999 -999 -999 -999
2007-08-14 10:39:21 51°14.259 2°49.403 -999 -999 -999 -999
2007-08-14 10:40:21 51°14.276 2°49.464 -999 -999 -999 -999
2007-08-14 10:41:21 51°14.292 2°49.529 -999 -999 -999 -999
2007-08-14 10:42:21 51°14.309 2°49.595 -999 -999 -999 -999
2007-08-14 10:43:21 51°14.325 2°49.663 -999 -999 -999 -999
2007-08-14 10:44:21 51°14.342 2°49.732 -999 -999 -999 -999
2007-08-14 10:45:21 51°14.36 2°49.8 -999 -999 -999 -999
2007-08-14 10:46:21 51°14.379 2°49.868 -999 -999 -999 -999
2007-08-14 10:47:21 51°14.398 2°49.936 -999 -999 -999 -999
2007-08-14 10:48:21 51°14.417 2°50.004 -999 -999 -999 -999
2007-08-14 10:49:21 51°14.438 2°50.074 -999 -999 -999 -999
2007-08-14 10:50:21 51°14.462 2°50.142 -999 -999 -999 -999
2007-08-14 10:51:21 51°14.486 2°50.21 -999 -999 -999 -999
2007-08-14 10:52:22 51°14.508 2°50.283 -999 -999 -999 -999
2007-08-14 10:53:21 51°14.528 2°50.354 -999 -999 -999 -999
2007-08-14 10:54:22 51°14.549 2°50.429 -999 -999 -999 -999
2007-08-14 10:55:21 51°14.571 2°50.5 -999 -999 -999 -999
2007-08-14 10:56:21 51°14.595 2°50.571 -999 -999 -999 -999
2007-08-14 10:57:21 51°14.616 2°50.645 -999 -999 -999 -999
2007-08-14 10:58:21 51°14.629 2°50.723 -999 -999 -999 -999
2007-08-14 10:59:21 51°14.63 2°50.815 -999 -999 -999 -999
2007-08-14 11:00:21 51°14.618 2°50.902 -999 -999 -999 -999
2007-08-14 11:01:21 51°14.607 2°50.957 -999 -999 -999 -999
2007-08-14 11:02:21 51°14.597 2°51.004 -999 -999 -999 -999
2007-08-14 11:03:21 51°14.56 2°51.076 -999 -999 -999 -999
2007-08-14 11:04:21 51°14.525 2°51.134 -999 -999 -999 -999
2007-08-14 11:05:21 51°14.509 2°51.172 -999 -999 -999 -999
2007-08-14 11:06:21 51°14.489 2°51.206 -999 -999 -999 -999
2007-08-14 11:07:21 51°14.439 2°51.138 -999 -999 -999 -999
2007-08-14 11:08:22 51°14.453 2°51.018 -999 -999 -999 -999
2007-08-14 11:09:21 51°14.467 2°50.948 -999 -999 -999 -999
2007-08-14 11:10:22 51°14.476 2°50.908 -999 -999 -999 -999
2007-08-14 11:11:21 51°14.484 2°50.881 -999 -999 -999 -999
2007-08-14 11:12:22 51°14.496 2°50.853 -999 -999 -999 -999
2007-08-14 11:13:21 51°14.515 2°50.813 -999 -999 -999 -999
2007-08-14 11:14:21 51°14.568 2°50.781 -999 -999 -999 -999
2007-08-14 11:15:21 51°14.618 2°50.849 -999 -999 -999 -999
2007-08-14 11:16:21 51°14.634 2°50.986 -999 -999 -999 -999
2007-08-14 11:17:22 51°14.637 2°51.271 -999 -999 -999 -999
2007-08-14 11:18:21 51°14.663 2°51.603 -999 -999 -999 -999
2007-08-14 11:19:21 51°14.697 2°51.941 -999 -999 -999 -999
2007-08-14 11:20:21 51°14.718 2°52.281 -999 -999 -999 -999
2007-08-14 11:21:21 51°14.744 2°52.62 -999 -999 -999 -999
2007-08-14 11:22:21 51°14.742 2°52.961 -999 -999 -999 -999
2007-08-14 11:23:21 51°14.731 2°53.304 -999 -999 -999 -999
2007-08-14 11:24:22 51°14.694 2°53.648 -999 -999 -999 -999
2007-08-14 11:25:21 51°14.635 2°53.973 -999 -999 -999 -999
2007-08-14 11:26:22 51°14.567 2°54.307 -999 -999 -999 -999
2007-08-14 11:27:21 51°14.5 2°54.629 -999 -999 -999 -999
2007-08-14 11:28:22 51°14.414 2°54.946 -999 -999 -999 -999
2007-08-14 11:29:21 51°14.337 2°55.137 -999 -999 -999 -999
2007-08-14 11:30:22 51°14.269 2°55.259 -999 -999 -999 -999
2007-08-14 11:31:21 51°14.206 2°55.347 -999 -999 -999 -999
2007-08-14 11:32:22 51°14.137 2°55.423 -999 -999 -999 -999
2007-08-14 11:33:22 51°14.034 2°55.493 -999 -999 -999 -999
2007-08-14 11:34:21 51°13.938 2°55.559 -999 -999 -999 -999
2007-08-14 11:35:22 51°13.84 2°55.629 -999 -999 -999 -999
2007-08-14 11:36:22 51°13.755 2°55.72 -999 -999 -999 -999
2007-08-14 11:37:22 51°13.698 2°55.833 -999 -999 -999 -999
2007-08-14 11:38:22 51°13.655 2°55.933 -999 -999 -999 -999
2007-08-14 11:39:22 51°13.621 2°56.028 -999 -999 -999 -999
2007-08-14 11:40:22 51°13.608 2°56.085 -999 -999 -999 -999
2007-08-14 11:41:22 51°13.603 2°56.095 -999 -999 -999 -999
2007-08-14 11:42:22 51°13.602 2°56.098 -999 -999 -999 -999
2007-08-14 11:43:22 51°13.603 2°56.098 -999 -999 -999 -999
2007-08-14 11:44:22 51°13.603 2°56.098 -999 -999 -999 -999
2007-08-14 11:45:22 51°13.603 2°56.099 -999 -999 -999 -999